User: anonymous   Login
Location: Brabourne
(51.1333°N, 1.0000°E)
Time: 03:02:17
(UTC+00:00)
Language:

Cosmos 1933 - Orbit

View from above orbital plane
View from above orbital plane
View from above satellite
View from above satellite

Ground track
Ground track

The orbit data is extracted from the following two-line orbital elements,

1 18958U 88020A   21270.62204653  .00000976  00000-0  68542-4 0  9990
2 18958  82.5315  34.3796 0011687   9.3189 350.8252 15.04006479805297
Epoch (UTC): 27 September 2021 14:55:44
Eccentricity: 0.0011687
inclination: 82.5315°
perigee height: 546 km
apogee height: 562 km
right ascension of ascending node: 34.3796°
argument of perigee: 9.3189°
revolutions per day: 15.04006479
mean anomaly at epoch: 350.8252°
orbit number at epoch: 80529

The dashed part of the orbit path shows where the satellite is in the earth's shadow,  

DLR